Terminal Aerodrome Forecast
Issued by NWS Pendleton, OR

Home | Current Version | Previous Version | Text Only | Print | Product List | Glossary On
Versions: 1 2 3 4 5 6 7 8 9 10 11 12 13 14 15 16 17 18
000
FTUS46 KPDT 231700
TAFPDT
TAF
KPDT 231722Z 2318/2418 12007KT P6SM -SHRA OVC070
     FM232000 26012G20KT P6SM -SHRA BKN040 OVC070
     FM240300 VRB06KT P6SM VCSH BKN070 BKN200=

USA.gov is the U.S. government's official web portal to all federal, state and local government web resources and services.